Location: Buckland
(65.9785°N, 161.1281°W)
Time: 21:39:29
(UTC+00:00)

PRISM - Pass Details

Date: 24 January 2021
Orbit: 565 x 584 km, 98.2° (Epoch: 06 March)

Event Time Altitude Azimuth Distance (km) Brightness Sun altitude
Rises 14:53:12 0° 21° (NNE) 2,789 ? -29.7°
Reaches altitude 10° 14:55:23 10° 17° (NNE) 1,890 ? -29.5°
Enters shadow 14:56:37 19° 12° (NNE) 1,398 ? -29.4°
